START_TIME,STEP,MOV.,H8,t_acc.,H43,t_acc.,M25,t_acc.,H9,t_acc.
1979-07-22 09:00:29.140 ,4,0,0.,12.0,0.,12.0,0.,12.0,0.,12.0
1979-07-22 09:00:41.140 ,4,0,0.,12.0,0.,12.0,0.,12.0,0.,12.0
1979-07-22 09:00:53.140 ,3,0,0.,12.0,0.,12.0,0.,12.0,0.,12.0
1979-07-22 09:01:05.140 ,3,0,0.,12.0,0.,12.0,0.,12.0,0.,12.0
1979-07-22 09:01:17.140 ,3,0,0.,12.0,0.,12.0,0.,12.0,0.,12.0
1979-07-22 09:01:29.140 ,3,0,0.,12.0,0.,12.0,0.,12.0,0.,12.0
1979-07-22 09:01:41.140 ,2,0,0.,12.0,0.,12.0,0.,12.0,0.,12.0
1979-07-22 09:01:53.140 ,2,0,0.,12.0,0.,12.0,0.,12.0,0.,12.0
1979-07-22 09:02:05.140 ,2,0,0.,12.0,0.,12.0,0.,12.0,0.,12.0
1979-07-22 09:02:17.140 ,2,0,0.,12.0,0.,12.0,0.,12.0,0.,12.0
1979-07-22 09:02:29.140 ,1,0,0.,12.0,0.,12.0,0.,12.0,0.,12.0
1979-07-22 09:02:41.140 ,1,0,0.,12.0,0.,12.0,0.,12.0,0.,12.0
1979-07-22 09:02:53.140 ,1,0,0.,12.0,0.,12.0,0.,12.0,0.,12.0
1979-07-22 09:03:05.140 ,1,0,1.,12.0,0.,12.0,0.,12.0,0.,12.0
1979-07-22 09:03:17.140 ,0,0,1.,12.0,0.,12.0,0.,12.0,0.,12.0
1979-07-22 09:03:29.140 ,0,0,12.,12.0,0.,12.0,0.,12.0,0.,12.0
1979-07-22 09:03:41.140 ,0,0,15.,12.0,0.,12.0,0.,12.0,0.,12.0
1979-07-22 09:03:53.140 ,0,0,12.,12.0,0.,12.0,0.,12.0,0.,12.0
1979-07-22 09:04:05.140 ,0,0,8.,12.0,0.,12.0,0.,12.0,0.,12.0
1979-07-22 09:04:17.140 ,0,0,10.,12.0,0.,12.0,0.,12.0,0.,12.0
1979-07-22 09:04:29.140 ,0,0,5.,12.0,0.,12.0,0.,12.0,0.,12.0
1979-07-22 09:04:41.140 ,0,0,1.,12.0,0.,12.0,0.,12.0,0.,12.0
1979-07-22 09:04:53.140 ,1,0,1.,12.0,0.,12.0,0.,12.0,0.,12.0
1979-07-22 09:05:05.140 ,1,0,1.,12.0,0.,12.0,0.,12.0,0.,12.0
1979-07-22 09:05:17.140 ,1,0,0.,12.0,0.,12.0,0.,12.0,0.,12.0
1979-07-22 09:05:29.140 ,1,0,0.,12.0,0.,12.0,0.,12.0,0.,12.0
1979-07-22 09:05:41.140 ,2,0,0.,12.0,0.,12.0,0.,12.0,0.,12.0
1979-07-22 09:05:53.140 ,2,0,0.,12.0,0.,12.0,0.,12.0,0.,12.0
1979-07-22 09:06:05.140 ,2,0,0.,12.0,0.,12.0,0.,12.0,0.,12.0
1979-07-22 09:06:17.140 ,2,0,0.,12.0,0.,12.0,0.,12.0,0.,12.0
1979-07-22 09:06:29.140 ,3,0,0.,12.0,0.,12.0,0.,12.0,0.,12.0
1979-07-22 09:06:41.140 ,3,0,0.,12.0,0.,12.0,0.,12.0,0.,12.0
1979-07-22 09:06:53.140 ,3,0,0.,12.0,0.,12.0,0.,12.0,0.,12.0
1979-07-22 09:07:05.140 ,3,0,0.,12.0,0.,12.0,0.,12.0,0.,12.0
1979-07-22 09:07:17.140 ,4,0,0.,12.0,0.,12.0,0.,12.0,0.,12.0
1979-07-22 09:07:29.140 ,4,0,0.,12.0,0.,12.0,0.,12.0,0.,12.0
1979-07-22 09:07:41.140 ,4,0,0.,12.0,0.,12.0,0.,12.0,0.,12.0
1979-07-22 09:07:53.140 ,4,0,0.,12.0,0.,12.0,0.,12.0,0.,12.0
1979-07-22 09:08:05.140 ,5,0,0.,12.0,0.,12.0,0.,12.0,0.,12.0
1979-07-22 09:08:17.140 ,5,0,0.,12.0,0.,12.0,0.,12.0,0.,12.0
1979-07-22 09:08:29.140 ,5,0,0.,12.0,0.,12.0,0.,12.0,0.,12.0
1979-07-22 09:08:41.140 ,5,0,0.,12.0,0.,12.0,0.,12.0,0.,12.0
1979-07-22 09:08:53.140 ,6,0,0.,12.0,0.,12.0,0.,12.0,0.,12.0
1979-07-22 09:09:05.140 ,6,0,0.,12.0,0.,12.0,0.,12.0,0.,12.0
1979-07-22 09:09:17.140 ,6,0,0.,12.0,0.,12.0,0.,12.0,0.,12.0
1979-07-22 09:09:29.140 ,6,0,0.,12.0,0.,12.0,0.,12.0,0.,12.0
1979-07-22 09:09:41.140 ,7,0,0.,12.0,0.,12.0,0.,12.0,0.,12.0
1979-07-22 09:09:53.140 ,7,0,0.,12.0,0.,12.0,0.,12.0,0.,12.0
1979-07-22 09:10:05.140 ,7,0,0.,12.0,0.,12.0,0.,12.0,0.,12.0
1979-07-22 09:10:17.140 ,7,0,0.,12.0,0.,12.0,0.,12.0,0.,12.0
1979-07-22 09:10:29.140 ,7,0,0.,12.0,0.,12.0,0.,12.0,0.,12.0
1979-07-22 09:10:41.140 ,7,0,0.,12.0,0.,12.0,0.,12.0,0.,12.0
1979-07-22 09:10:53.140 ,7,0,0.,12.0,0.,12.0,0.,12.0,0.,12.0
1979-07-22 09:11:05.140 ,7,0,0.,12.0,0.,12.0,0.,12.0,0.,12.0
1979-07-22 09:11:17.140 ,6,0,0.,12.0,0.,12.0,0.,12.0,0.,12.0
1979-07-22 09:11:29.140 ,6,0,0.,12.0,0.,12.0,0.,12.0,0.,12.0
1979-07-22 09:11:41.140 ,6,0,0.,12.0,0.,12.0,0.,12.0,0.,12.0
1979-07-22 09:11:53.140 ,6,0,0.,12.0,0.,12.0,0.,12.0,0.,12.0
1979-07-22 09:12:05.140 ,5,0,0.,12.0,0.,12.0,0.,12.0,0.,12.0
1979-07-22 09:12:17.140 ,5,0,0.,12.0,0.,12.0,0.,12.0,0.,12.0
1979-07-22 09:12:29.140 ,5,0,0.,12.0,0.,12.0,0.,12.0,0.,12.0
1979-07-22 09:12:41.140 ,5,0,0.,12.0,0.,12.0,0.,12.0,0.,12.0
1979-07-22 09:12:53.140 ,4,0,0.,12.0,0.,12.0,0.,12.0,0.,12.0
1979-07-22 09:13:05.140 ,4,0,0.,12.0,0.,12.0,0.,12.0,0.,12.0
1979-07-22 09:13:17.140 ,4,0,0.,12.0,0.,12.0,0.,12.0,0.,12.0
1979-07-22 09:13:29.140 ,4,0,0.,12.0,0.,12.0,0.,12.0,0.,12.0
1979-07-22 09:13:41.140 ,3,0,0.,12.0,0.,12.0,0.,12.0,0.,12.0
1979-07-22 09:13:53.140 ,3,0,0.,12.0,0.,12.0,0.,12.0,0.,12.0
1979-07-22 09:14:05.140 ,3,0,0.,12.0,0.,12.0,0.,12.0,0.,12.0
1979-07-22 09:14:17.140 ,3,0,0.,12.0,0.,12.0,0.,12.0,0.,12.0
1979-07-22 09:14:29.140 ,2,0,0.,12.0,0.,12.0,0.,12.0,0.,12.0
1979-07-22 09:14:41.140 ,2,0,0.,12.0,0.,12.0,0.,12.0,0.,12.0
1979-07-22 09:14:53.140 ,2,0,0.,12.0,0.,12.0,0.,12.0,0.,12.0
1979-07-22 09:15:05.140 ,2,0,0.,12.0,0.,12.0,0.,12.0,0.,12.0
1979-07-22 09:15:17.140 ,1,0,0.,12.0,0.,12.0,0.,12.0,0.,12.0
1979-07-22 09:15:29.140 ,1,0,0.,12.0,0.,12.0,0.,12.0,0.,12.0
1979-07-22 09:15:41.140 ,1,0,0.,12.0,0.,12.0,0.,12.0,0.,12.0
1979-07-22 09:15:53.140 ,1,0,0.,12.0,0.,12.0,0.,12.0,0.,12.0
1979-07-22 09:16:05.140 ,0,0,0.,12.0,0.,12.0,0.,12.0,0.,12.0
1979-07-22 09:16:17.140 ,0,0,10.,12.0,0.,12.0,0.,12.0,0.,12.0
1979-07-22 09:16:29.140 ,0,0,9.,12.0,0.,12.0,0.,12.0,0.,12.0
1979-07-22 09:16:41.140 ,0,0,4.,12.0,0.,12.0,0.,12.0,0.,12.0
1979-07-22 09:16:53.140 ,0,0,10.,12.0,0.,12.0,0.,12.0,0.,12.0
1979-07-22 09:17:05.140 ,0,0,2.,12.0,0.,12.0,0.,12.0,0.,12.0
1979-07-22 09:17:17.140 ,0,0,6.,12.0,0.,12.0,0.,12.0,0.,12.0
1979-07-22 09:17:29.140 ,0,0,4.,12.0,0.,12.0,0.,12.0,0.,12.0
1979-07-22 09:17:41.140 ,1,0,1.,12.0,0.,12.0,0.,12.0,0.,12.0
1979-07-22 09:17:53.140 ,1,0,1.,12.0,0.,12.0,0.,12.0,0.,12.0
1979-07-22 09:18:05.140 ,1,0,11.,12.0,0.,12.0,0.,12.0,0.,12.0
1979-07-22 09:18:17.140 ,1,0,6.,12.0,0.,12.0,0.,12.0,0.,12.0
1979-07-22 09:18:29.140 ,2,0,2.,12.0,0.,12.0,0.,12.0,0.,12.0
1979-07-22 09:18:41.140 ,2,0,0.,12.0,0.,12.0,0.,12.0,0.,12.0
1979-07-22 09:18:53.140 ,2,0,1.,12.0,0.,12.0,0.,12.0,0.,12.0
1979-07-22 09:19:05.140 ,2,0,0.,12.0,0.,12.0,0.,12.0,0.,12.0
1979-07-22 09:19:17.140 ,3,0,0.,12.0,0.,12.0,0.,12.0,0.,12.0
1979-07-22 09:19:29.140 ,3,0,0.,12.0,0.,12.0,0.,12.0,0.,12.0
1979-07-22 09:19:41.140 ,3,0,0.,12.0,0.,12.0,0.,12.0,0.,12.0
1979-07-22 09:19:53.140 ,3,0,0.,12.0,0.,12.0,0.,12.0,0.,12.0
1979-07-22 09:20:05.140 ,4,0,0.,12.0,0.,12.0,0.,12.0,0.,12.0
1979-07-22 09:20:17.140 ,4,0,0.,12.0,0.,12.0,0.,12.0,0.,12.0
1979-07-22 09:20:29.140 ,4,0,0.,12.0,0.,12.0,0.,12.0,0.,12.0
1979-07-22 09:20:41.140 ,4,0,0.,12.0,0.,12.0,0.,12.0,0.,12.0
1979-07-22 09:20:53.140 ,5,0,0.,12.0,0.,12.0,0.,12.0,0.,12.0
1979-07-22 09:21:05.140 ,5,0,0.,12.0,0.,12.0,0.,12.0,0.,12.0
1979-07-22 09:21:17.140 ,5,0,0.,12.0,0.,12.0,0.,12.0,0.,12.0
1979-07-22 09:21:29.140 ,5,0,0.,12.0,0.,12.0,0.,12.0,0.,12.0
1979-07-22 09:21:41.140 ,6,0,0.,12.0,0.,12.0,0.,12.0,0.,12.0
1979-07-22 09:21:53.140 ,6,0,0.,12.0,0.,12.0,0.,12.0,0.,12.0
1979-07-22 09:22:05.140 ,6,0,0.,12.0,0.,12.0,0.,12.0,0.,12.0
1979-07-22 09:22:17.140 ,6,0,0.,12.0,0.,12.0,0.,12.0,0.,12.0
1979-07-22 09:22:29.140 ,7,0,0.,12.0,0.,12.0,0.,12.0,0.,12.0
1979-07-22 09:22:41.140 ,7,0,0.,12.0,0.,12.0,0.,12.0,0.,12.0
1979-07-22 09:22:53.140 ,7,0,0.,12.0,0.,12.0,0.,12.0,0.,12.0
1979-07-22 09:23:05.140 ,7,0,0.,12.0,0.,12.0,0.,12.0,0.,12.0
1979-07-22 09:23:17.140 ,7,0,0.,12.0,0.,12.0,0.,12.0,0.,12.0
1979-07-22 09:23:29.140 ,7,0,0.,12.0,0.,12.0,0.,12.0,0.,12.0
1979-07-22 09:23:41.140 ,7,0,0.,12.0,0.,12.0,0.,12.0,0.,12.0
1979-07-22 09:23:53.140 ,7,0,0.,12.0,0.,12.0,0.,12.0,0.,12.0
1979-07-22 09:24:05.140 ,6,0,0.,12.0,0.,12.0,0.,12.0,0.,12.0
1979-07-22 09:24:17.140 ,6,0,1.,12.0,0.,12.0,0.,12.0,0.,12.0
1979-07-22 09:24:29.140 ,6,0,0.,12.0,0.,12.0,0.,12.0,0.,12.0
1979-07-22 09:24:41.140 ,6,0,0.,12.0,0.,12.0,0.,12.0,0.,12.0
1979-07-22 09:24:53.140 ,5,0,0.,12.0,0.,12.0,0.,12.0,0.,12.0
1979-07-22 09:25:05.140 ,5,0,0.,12.0,0.,12.0,0.,12.0,0.,12.0
1979-07-22 09:25:17.140 ,5,0,0.,12.0,0.,12.0,0.,12.0,0.,12.0
1979-07-22 09:25:29.140 ,5,0,0.,12.0,0.,12.0,0.,12.0,0.,12.0
1979-07-22 09:25:41.140 ,4,0,0.,12.0,0.,12.0,0.,12.0,0.,12.0
1979-07-22 09:25:53.140 ,4,0,0.,12.0,0.,12.0,0.,12.0,0.,12.0
1979-07-22 09:26:05.140 ,4,0,0.,12.0,0.,12.0,0.,12.0,0.,12.0
1979-07-22 09:26:17.140 ,4,0,0.,12.0,0.,12.0,0.,12.0,0.,12.0
1979-07-22 09:26:29.140 ,3,0,0.,12.0,0.,12.0,0.,12.0,0.,12.0
1979-07-22 09:26:41.140 ,3,0,0.,12.0,0.,12.0,0.,12.0,0.,12.0
1979-07-22 09:26:53.140 ,3,0,0.,12.0,0.,12.0,0.,12.0,0.,12.0
1979-07-22 09:27:05.140 ,3,0,0.,12.0,0.,12.0,0.,12.0,0.,12.0
1979-07-22 09:27:17.140 ,2,0,0.,12.0,0.,12.0,0.,12.0,0.,12.0
1979-07-22 09:27:29.140 ,2,0,0.,12.0,0.,12.0,0.,12.0,0.,12.0
1979-07-22 09:27:41.140 ,0,0,0.,12.0,0.,12.0,0.,12.0,0.,12.0
1979-07-22 09:27:53.140 ,0,0,,0,,0,,0,,0
1979-07-22 09:28:05.140 ,1,0,0.,12.0,0.,12.0,0.,12.0,0.,12.0
1979-07-22 09:28:17.140 ,1,0,0.,12.0,0.,12.0,0.,12.0,0.,12.0
1979-07-22 09:28:29.140 ,1,0,0.,12.0,0.,12.0,0.,12.0,0.,12.0
1979-07-22 09:28:41.140 ,1,0,0.,12.0,0.,12.0,0.,12.0,0.,12.0
1979-07-22 09:28:53.140 ,0,0,1.,12.0,0.,12.0,0.,12.0,0.,12.0
1979-07-22 09:29:05.140 ,0,0,18.,12.0,0.,12.0,0.,12.0,0.,12.0
1979-07-22 09:29:17.140 ,0,0,13.,12.0,0.,12.0,0.,12.0,0.,12.0
1979-07-22 09:29:29.140 ,0,0,9.,12.0,0.,12.0,0.,12.0,0.,12.0
1979-07-22 09:29:41.140 ,0,0,5.,12.0,0.,12.0,0.,12.0,0.,12.0
1979-07-22 09:29:53.140 ,0,0,5.,12.0,0.,12.0,0.,12.0,0.,12.0
1979-07-22 09:30:05.140 ,0,0,8.,12.0,0.,12.0,0.,12.0,0.,12.0
1979-07-22 09:30:17.140 ,0,0,3.,12.0,0.,12.0,0.,12.0,0.,12.0
1979-07-22 09:30:29.140 ,1,0,5.,12.0,0.,12.0,0.,12.0,0.,12.0
1979-07-22 09:30:41.140 ,1,0,1.,12.0,0.,12.0,0.,12.0,0.,12.0
1979-07-22 09:30:53.140 ,1,0,0.,12.0,0.,12.0,0.,12.0,0.,12.0
1979-07-22 09:31:05.140 ,1,0,2.,12.0,0.,12.0,0.,12.0,0.,12.0
1979-07-22 09:31:17.140 ,2,0,0.,12.0,0.,12.0,0.,12.0,0.,12.0
1979-07-22 09:31:29.140 ,2,0,0.,12.0,0.,12.0,0.,12.0,0.,12.0
1979-07-22 09:31:41.140 ,2,0,0.,12.0,0.,12.0,0.,12.0,0.,12.0
1979-07-22 09:31:53.140 ,2,0,0.,12.0,0.,12.0,0.,12.0,0.,12.0
1979-07-22 09:32:05.140 ,3,0,1.,12.0,0.,12.0,0.,12.0,0.,12.0
1979-07-22 09:32:17.140 ,3,0,0.,12.0,0.,12.0,0.,12.0,0.,12.0
1979-07-22 09:32:29.140 ,3,0,0.,12.0,0.,12.0,0.,12.0,0.,12.0
1979-07-22 09:32:41.140 ,3,0,0.,12.0,0.,12.0,0.,12.0,0.,12.0
1979-07-22 09:32:53.140 ,4,0,0.,12.0,0.,12.0,0.,12.0,0.,12.0
1979-07-22 09:33:05.140 ,4,0,0.,12.0,0.,12.0,0.,12.0,0.,12.0
1979-07-22 09:33:17.140 ,4,0,0.,12.0,0.,12.0,0.,12.0,0.,12.0
1979-07-22 09:33:29.140 ,4,0,0.,12.0,0.,12.0,0.,12.0,0.,12.0
1979-07-22 09:33:41.140 ,5,0,0.,12.0,0.,12.0,0.,12.0,0.,12.0
1979-07-22 09:33:53.140 ,5,0,0.,12.0,0.,12.0,0.,12.0,0.,12.0
1979-07-22 09:34:05.140 ,5,0,0.,12.0,0.,12.0,0.,12.0,0.,12.0
1979-07-22 09:34:17.140 ,5,0,0.,12.0,0.,12.0,0.,12.0,0.,12.0
1979-07-22 09:34:29.140 ,6,0,0.,12.0,0.,12.0,0.,12.0,0.,12.0
1979-07-22 09:34:41.140 ,6,0,0.,12.0,0.,12.0,0.,12.0,0.,12.0
1979-07-22 09:34:53.140 ,6,0,0.,12.0,0.,12.0,0.,12.0,0.,12.0
1979-07-22 09:35:05.140 ,6,0,0.,12.0,0.,12.0,0.,12.0,0.,12.0
1979-07-22 09:35:17.140 ,7,0,0.,12.0,0.,12.0,0.,12.0,0.,12.0
1979-07-22 09:35:29.140 ,7,0,0.,12.0,0.,12.0,0.,12.0,0.,12.0
1979-07-22 09:35:41.140 ,7,0,0.,12.0,0.,12.0,0.,12.0,0.,12.0
1979-07-22 09:35:53.140 ,7,0,0.,12.0,0.,12.0,0.,12.0,0.,12.0
1979-07-22 09:36:05.140 ,7,0,0.,12.0,0.,12.0,0.,12.0,0.,12.0
1979-07-22 09:36:17.140 ,7,0,0.,12.0,0.,12.0,0.,12.0,0.,12.0
1979-07-22 09:36:29.140 ,7,0,0.,12.0,0.,12.0,0.,12.0,0.,12.0
1979-07-22 09:36:41.140 ,7,0,0.,12.0,0.,12.0,0.,12.0,0.,12.0
1979-07-22 09:36:53.140 ,6,0,0.,12.0,0.,12.0,0.,12.0,0.,12.0
1979-07-22 09:37:05.140 ,6,0,0.,12.0,0.,12.0,0.,12.0,0.,12.0
1979-07-22 09:37:17.140 ,6,0,0.,12.0,0.,12.0,0.,12.0,0.,12.0
1979-07-22 09:37:29.140 ,6,0,0.,12.0,0.,12.0,0.,12.0,0.,12.0
1979-07-22 09:37:41.140 ,5,0,1.,12.0,0.,12.0,0.,12.0,0.,12.0
1979-07-22 09:37:53.140 ,5,0,0.,12.0,0.,12.0,0.,12.0,0.,12.0
1979-07-22 09:38:05.140 ,5,0,0.,12.0,0.,12.0,0.,12.0,0.,12.0
1979-07-22 09:38:17.140 ,5,0,0.,12.0,0.,12.0,0.,12.0,0.,12.0
1979-07-22 09:38:29.140 ,4,0,0.,12.0,0.,12.0,0.,12.0,0.,12.0
1979-07-22 09:38:41.140 ,4,0,0.,12.0,0.,12.0,0.,12.0,0.,12.0
1979-07-22 09:38:53.140 ,4,0,0.,12.0,0.,12.0,0.,12.0,0.,12.0
1979-07-22 09:39:05.140 ,4,0,0.,12.0,0.,12.0,0.,12.0,0.,12.0
1979-07-22 09:39:17.140 ,3,0,0.,12.0,0.,12.0,0.,12.0,0.,12.0
1979-07-22 09:39:29.140 ,3,0,0.,12.0,0.,12.0,0.,12.0,0.,12.0
1979-07-22 09:39:41.140 ,3,0,0.,12.0,0.,12.0,0.,12.0,0.,12.0
1979-07-22 09:39:53.140 ,3,0,0.,12.0,0.,12.0,0.,12.0,0.,12.0
1979-07-22 09:40:05.140 ,2,0,0.,12.0,0.,12.0,0.,12.0,0.,12.0
1979-07-22 09:40:17.140 ,2,0,0.,12.0,0.,12.0,0.,12.0,0.,12.0
1979-07-22 09:40:29.140 ,2,0,0.,12.0,0.,12.0,0.,12.0,0.,12.0
1979-07-22 09:40:41.140 ,2,0,0.,12.0,0.,12.0,0.,12.0,0.,12.0
1979-07-22 09:40:53.140 ,1,0,0.,12.0,0.,12.0,0.,12.0,0.,12.0
1979-07-22 09:41:05.140 ,1,0,1.,12.0,0.,12.0,0.,12.0,0.,12.0
1979-07-22 09:41:17.140 ,1,0,1.,12.0,0.,12.0,0.,12.0,0.,12.0
1979-07-22 09:41:29.140 ,1,0,0.,12.0,0.,12.0,0.,12.0,0.,12.0
1979-07-22 09:41:41.140 ,0,0,0.,12.0,0.,12.0,0.,12.0,0.,12.0
1979-07-22 09:41:53.140 ,0,0,3.,12.0,0.,12.0,0.,12.0,0.,12.0
1979-07-22 09:42:05.140 ,0,0,2.,12.0,0.,12.0,0.,12.0,0.,12.0
1979-07-22 09:42:17.140 ,0,0,3.,12.0,0.,12.0,0.,12.0,0.,12.0
1979-07-22 09:42:29.140 ,0,0,2.,12.0,0.,12.0,0.,12.0,0.,12.0
1979-07-22 09:42:41.140 ,0,0,1.,12.0,0.,12.0,0.,12.0,0.,12.0
1979-07-22 09:42:53.140 ,0,0,1.,12.0,0.,12.0,0.,12.0,0.,12.0
1979-07-22 09:43:05.140 ,0,0,1.,12.0,0.,12.0,0.,12.0,0.,12.0
1979-07-22 09:43:17.140 ,1,0,2.,12.0,0.,12.0,0.,12.0,0.,12.0
1979-07-22 09:43:29.140 ,1,0,0.,12.0,0.,12.0,0.,12.0,0.,12.0
1979-07-22 09:43:41.140 ,1,0,0.,12.0,0.,12.0,0.,12.0,0.,12.0
1979-07-22 09:43:53.140 ,1,0,0.,12.0,0.,12.0,0.,12.0,0.,12.0
1979-07-22 09:44:05.140 ,2,0,0.,12.0,0.,12.0,0.,12.0,0.,12.0
1979-07-22 09:44:17.140 ,2,0,0.,12.0,0.,12.0,0.,12.0,0.,12.0
1979-07-22 09:44:29.140 ,2,0,0.,12.0,0.,12.0,0.,12.0,0.,12.0
1979-07-22 09:44:41.140 ,2,0,0.,12.0,0.,12.0,0.,12.0,0.,12.0
1979-07-22 09:44:53.140 ,3,0,1.,12.0,0.,12.0,0.,12.0,0.,12.0
1979-07-22 09:45:05.140 ,3,0,0.,12.0,0.,12.0,0.,12.0,0.,12.0
1979-07-22 09:45:17.140 ,3,0,0.,12.0,0.,12.0,0.,12.0,0.,12.0
1979-07-22 09:45:29.140 ,3,0,0.,12.0,0.,12.0,0.,12.0,0.,12.0
1979-07-22 09:45:41.140 ,4,0,0.,12.0,0.,12.0,0.,12.0,0.,12.0
1979-07-22 09:45:53.140 ,4,0,0.,12.0,0.,12.0,0.,12.0,0.,12.0
1979-07-22 09:46:05.140 ,4,0,0.,12.0,0.,12.0,0.,12.0,0.,12.0
1979-07-22 09:46:17.140 ,4,0,0.,12.0,0.,12.0,0.,12.0,0.,12.0
1979-07-22 09:46:29.140 ,5,0,0.,12.0,0.,12.0,0.,12.0,0.,12.0
1979-07-22 09:46:41.140 ,5,0,0.,12.0,0.,12.0,0.,12.0,0.,12.0
1979-07-22 09:46:53.140 ,5,0,0.,12.0,0.,12.0,0.,12.0,0.,12.0
1979-07-22 09:47:05.140 ,5,0,0.,12.0,0.,12.0,0.,12.0,0.,12.0
1979-07-22 09:47:17.140 ,6,0,0.,12.0,0.,12.0,0.,12.0,0.,12.0
1979-07-22 09:47:29.140 ,6,0,0.,12.0,0.,12.0,0.,12.0,0.,12.0
1979-07-22 09:47:41.140 ,6,0,0.,12.0,0.,12.0,0.,12.0,0.,12.0
1979-07-22 09:47:53.140 ,6,0,1.,12.0,0.,12.0,0.,12.0,0.,12.0
1979-07-22 09:48:05.140 ,7,0,0.,12.0,0.,12.0,0.,12.0,0.,12.0
1979-07-22 09:48:17.140 ,7,0,0.,12.0,0.,12.0,0.,12.0,0.,12.0
1979-07-22 09:48:29.140 ,7,0,0.,12.0,0.,12.0,0.,12.0,0.,12.0
1979-07-22 09:48:41.140 ,7,0,0.,12.0,0.,12.0,0.,12.0,0.,12.0
1979-07-22 09:48:53.140 ,7,0,0.,12.0,0.,12.0,0.,12.0,0.,12.0
1979-07-22 09:49:05.140 ,7,0,0.,12.0,0.,12.0,0.,12.0,0.,12.0
1979-07-22 09:49:17.140 ,7,0,0.,12.0,0.,12.0,0.,12.0,0.,12.0
1979-07-22 09:49:29.140 ,7,0,0.,12.0,0.,12.0,0.,12.0,0.,12.0
1979-07-22 09:49:41.140 ,6,0,0.,12.0,0.,12.0,0.,12.0,0.,12.0
1979-07-22 09:49:53.140 ,6,0,0.,12.0,0.,12.0,0.,12.0,0.,12.0
1979-07-22 09:50:05.140 ,6,0,0.,12.0,0.,12.0,0.,12.0,0.,12.0
1979-07-22 09:50:17.140 ,6,0,0.,12.0,0.,12.0,0.,12.0,0.,12.0
1979-07-22 09:50:29.140 ,5,0,0.,12.0,0.,12.0,0.,12.0,0.,12.0
1979-07-22 09:50:41.140 ,5,0,0.,12.0,0.,12.0,0.,12.0,0.,12.0
1979-07-22 09:50:53.140 ,5,0,0.,12.0,0.,12.0,0.,12.0,0.,12.0
1979-07-22 09:51:05.140 ,5,0,0.,12.0,0.,12.0,0.,12.0,0.,12.0
1979-07-22 09:51:17.140 ,4,0,1.,12.0,0.,12.0,0.,12.0,0.,12.0
1979-07-22 09:51:29.140 ,4,0,0.,12.0,0.,12.0,0.,12.0,0.,12.0
1979-07-22 09:51:41.140 ,4,0,0.,12.0,0.,12.0,0.,12.0,0.,12.0
1979-07-22 09:51:53.140 ,4,0,0.,12.0,0.,12.0,0.,12.0,0.,12.0
1979-07-22 09:52:05.140 ,3,0,0.,12.0,0.,12.0,0.,12.0,0.,12.0
1979-07-22 09:52:17.140 ,3,0,0.,12.0,0.,12.0,0.,12.0,0.,12.0
1979-07-22 09:52:29.140 ,3,0,0.,12.0,0.,12.0,0.,12.0,0.,12.0
1979-07-22 09:52:41.140 ,3,0,0.,12.0,0.,12.0,0.,12.0,0.,12.0
1979-07-22 09:52:53.130 ,2,0,0.,12.0,0.,12.0,0.,12.0,0.,12.0
1979-07-22 09:53:05.130 ,2,0,0.,12.0,0.,12.0,0.,12.0,0.,12.0
1979-07-22 09:53:17.130 ,2,0,0.,12.0,0.,12.0,0.,12.0,0.,12.0
1979-07-22 09:53:29.130 ,2,0,0.,12.0,0.,12.0,0.,12.0,0.,12.0
1979-07-22 09:53:41.130 ,1,0,0.,12.0,0.,12.0,0.,12.0,0.,12.0
1979-07-22 09:53:53.130 ,1,0,0.,12.0,0.,12.0,0.,12.0,0.,12.0
1979-07-22 09:54:05.130 ,1,0,0.,12.0,0.,12.0,0.,12.0,0.,12.0
1979-07-22 09:54:17.130 ,1,0,0.,12.0,0.,12.0,0.,12.0,0.,12.0
1979-07-22 09:54:29.130 ,0,0,1.,12.0,0.,12.0,0.,12.0,0.,12.0
1979-07-22 09:54:41.130 ,0,0,16.,12.0,0.,12.0,0.,12.0,0.,12.0
1979-07-22 09:54:53.130 ,0,0,10.,12.0,0.,12.0,0.,12.0,0.,12.0
1979-07-22 09:55:05.130 ,0,0,9.,12.0,0.,12.0,0.,12.0,0.,12.0
1979-07-22 09:55:17.130 ,0,0,10.,12.0,0.,12.0,0.,12.0,0.,12.0
1979-07-22 09:55:29.130 ,0,0,,0,,0,,0,,0
1979-07-22 09:55:41.130 ,0,0,0.,12.0,0.,12.0,0.,12.0,0.,12.0
1979-07-22 09:55:53.130 ,0,0,5.,12.0,0.,12.0,0.,12.0,0.,12.0
1979-07-22 09:56:05.130 ,1,0,6.,12.0,0.,12.0,0.,12.0,0.,12.0
1979-07-22 09:56:17.130 ,1,0,0.,12.0,0.,12.0,0.,12.0,0.,12.0
1979-07-22 09:56:29.130 ,1,0,0.,12.0,0.,12.0,0.,12.0,0.,12.0
1979-07-22 09:56:41.130 ,1,0,1.,12.0,0.,12.0,0.,12.0,0.,12.0
1979-07-22 09:56:53.130 ,2,0,0.,12.0,0.,12.0,0.,12.0,0.,12.0
1979-07-22 09:57:05.130 ,2,0,0.,12.0,0.,12.0,0.,12.0,0.,12.0
1979-07-22 09:57:17.130 ,2,0,0.,12.0,0.,12.0,0.,12.0,0.,12.0
1979-07-22 09:57:29.130 ,2,0,0.,12.0,0.,12.0,0.,12.0,0.,12.0
1979-07-22 09:57:41.130 ,3,0,0.,12.0,0.,12.0,0.,12.0,0.,12.0
1979-07-22 09:57:53.130 ,3,0,0.,12.0,0.,12.0,0.,12.0,0.,12.0
1979-07-22 09:58:05.130 ,3,0,0.,12.0,0.,12.0,0.,12.0,0.,12.0
1979-07-22 09:58:17.130 ,3,0,0.,12.0,0.,12.0,0.,12.0,0.,12.0
1979-07-22 09:58:29.130 ,4,0,0.,12.0,0.,12.0,0.,12.0,0.,12.0
1979-07-22 09:58:41.130 ,4,0,0.,12.0,0.,12.0,0.,12.0,0.,12.0
1979-07-22 09:58:53.130 ,4,0,0.,12.0,0.,12.0,0.,12.0,0.,12.0
1979-07-22 09:59:05.130 ,4,0,0.,12.0,0.,12.0,0.,12.0,0.,12.0
1979-07-22 09:59:17.130 ,5,0,0.,12.0,0.,12.0,0.,12.0,0.,12.0
1979-07-22 09:59:29.130 ,5,0,0.,12.0,0.,12.0,0.,12.0,0.,12.0
1979-07-22 09:59:41.130 ,5,0,0.,12.0,0.,12.0,0.,12.0,0.,12.0
1979-07-22 09:59:53.130 ,5,0,0.,12.0,0.,12.0,0.,12.0,0.,12.0
1979-07-22 10:00:05.130 ,6,0,0.,12.0,0.,12.0,0.,12.0,0.,12.0
1979-07-22 10:00:17.130 ,6,0,0.,12.0,0.,12.0,0.,12.0,0.,12.0
1979-07-22 10:00:29.130 ,6,0,0.,12.0,0.,12.0,0.,12.0,0.,12.0
1979-07-22 10:00:41.130 ,6,0,0.,12.0,0.,12.0,0.,12.0,0.,12.0
1979-07-22 10:00:53.130 ,7,0,0.,12.0,0.,12.0,0.,12.0,0.,12.0
1979-07-22 10:01:05.130 ,7,0,0.,12.0,0.,12.0,0.,12.0,0.,12.0
1979-07-22 10:01:17.130 ,7,0,0.,12.0,0.,12.0,0.,12.0,0.,12.0
1979-07-22 10:01:29.130 ,7,0,0.,12.0,0.,12.0,0.,12.0,0.,12.0
1979-07-22 10:01:41.130 ,7,0,0.,12.0,0.,12.0,0.,12.0,0.,12.0
1979-07-22 10:01:53.130 ,7,0,0.,12.0,0.,12.0,0.,12.0,0.,12.0
1979-07-22 10:02:05.130 ,7,0,0.,12.0,0.,12.0,0.,12.0,0.,12.0
1979-07-22 10:02:17.130 ,7,0,0.,12.0,0.,12.0,0.,12.0,0.,12.0
1979-07-22 10:02:29.130 ,6,0,0.,12.0,0.,12.0,0.,12.0,0.,12.0
1979-07-22 10:02:41.130 ,6,0,0.,12.0,0.,12.0,0.,12.0,0.,12.0
1979-07-22 10:02:53.130 ,6,0,0.,12.0,0.,12.0,0.,12.0,0.,12.0
1979-07-22 10:03:05.130 ,6,0,0.,12.0,0.,12.0,0.,12.0,0.,12.0
1979-07-22 10:03:17.130 ,5,0,0.,12.0,0.,12.0,0.,12.0,0.,12.0
1979-07-22 10:03:29.130 ,5,0,0.,12.0,0.,12.0,0.,12.0,0.,12.0
1979-07-22 10:03:41.130 ,5,0,0.,12.0,0.,12.0,0.,12.0,0.,12.0
1979-07-22 10:03:53.130 ,5,0,0.,12.0,0.,12.0,0.,12.0,0.,12.0
1979-07-22 10:04:05.130 ,4,0,0.,12.0,0.,12.0,0.,12.0,0.,12.0
1979-07-22 10:04:17.130 ,4,0,0.,12.0,0.,12.0,0.,12.0,0.,12.0
1979-07-22 10:04:29.130 ,4,0,0.,12.0,0.,12.0,0.,12.0,0.,12.0
1979-07-22 10:04:41.130 ,4,0,0.,12.0,0.,12.0,0.,12.0,0.,12.0
1979-07-22 10:04:53.130 ,3,0,0.,12.0,0.,12.0,0.,12.0,0.,12.0
1979-07-22 10:05:05.130 ,3,0,0.,12.0,0.,12.0,0.,12.0,0.,12.0
1979-07-22 10:05:17.130 ,3,0,0.,12.0,0.,12.0,0.,12.0,0.,12.0
1979-07-22 10:05:29.130 ,3,0,0.,12.0,0.,12.0,0.,12.0,0.,12.0
1979-07-22 10:05:41.130 ,2,0,0.,12.0,0.,12.0,0.,12.0,0.,12.0
1979-07-22 10:05:53.130 ,2,0,0.,12.0,0.,12.0,0.,12.0,0.,12.0
1979-07-22 10:06:05.130 ,2,0,0.,12.0,0.,12.0,0.,12.0,0.,12.0
1979-07-22 10:06:17.130 ,2,0,0.,12.0,0.,12.0,0.,12.0,0.,12.0
1979-07-22 10:06:29.130 ,1,0,0.,12.0,0.,12.0,0.,12.0,0.,12.0
1979-07-22 10:06:41.130 ,1,0,0.,12.0,0.,12.0,0.,12.0,0.,12.0
1979-07-22 10:06:53.130 ,1,0,0.,12.0,0.,12.0,0.,12.0,0.,12.0
1979-07-22 10:07:05.130 ,1,0,0.,12.0,0.,12.0,0.,12.0,0.,12.0
1979-07-22 10:07:17.130 ,0,0,0.,12.0,0.,12.0,0.,12.0,0.,12.0
1979-07-22 10:07:29.130 ,0,0,2.,12.0,0.,12.0,0.,12.0,0.,12.0
1979-07-22 10:07:41.130 ,0,0,1.,12.0,0.,12.0,0.,12.0,0.,12.0
1979-07-22 10:07:53.130 ,0,0,0.,12.0,0.,12.0,0.,12.0,0.,12.0
1979-07-22 10:08:05.130 ,0,0,1.,12.0,0.,12.0,0.,12.0,0.,12.0
1979-07-22 10:08:17.130 ,0,0,2.,12.0,0.,12.0,0.,12.0,0.,12.0
1979-07-22 10:08:29.130 ,0,0,2.,12.0,0.,12.0,0.,12.0,0.,12.0
1979-07-22 10:08:41.130 ,0,0,0.,12.0,0.,12.0,0.,12.0,0.,12.0
1979-07-22 10:08:53.130 ,1,0,3.,12.0,0.,12.0,0.,12.0,0.,12.0
1979-07-22 10:09:05.130 ,1,0,0.,12.0,0.,12.0,0.,12.0,0.,12.0
1979-07-22 10:09:17.130 ,1,0,0.,12.0,0.,12.0,0.,12.0,0.,12.0
1979-07-22 10:09:29.130 ,1,0,0.,12.0,0.,12.0,0.,12.0,0.,12.0
1979-07-22 10:09:41.130 ,2,0,0.,12.0,0.,12.0,0.,12.0,0.,12.0
1979-07-22 10:09:53.130 ,2,0,0.,12.0,0.,12.0,0.,12.0,0.,12.0
1979-07-22 10:10:05.130 ,2,0,0.,12.0,0.,12.0,0.,12.0,0.,12.0
1979-07-22 10:10:17.130 ,2,0,0.,12.0,0.,12.0,0.,12.0,0.,12.0
1979-07-22 10:10:29.130 ,3,0,0.,12.0,0.,12.0,0.,12.0,0.,12.0
1979-07-22 10:10:41.130 ,3,0,0.,12.0,0.,12.0,0.,12.0,0.,12.0
1979-07-22 10:10:53.130 ,3,0,0.,12.0,0.,12.0,0.,12.0,0.,12.0
1979-07-22 10:11:05.130 ,3,0,0.,12.0,0.,12.0,0.,12.0,0.,12.0
1979-07-22 10:11:17.130 ,4,0,0.,12.0,0.,12.0,0.,12.0,0.,12.0
1979-07-22 10:11:29.130 ,4,0,0.,12.0,0.,12.0,0.,12.0,0.,12.0
1979-07-22 10:11:41.130 ,4,0,0.,12.0,0.,12.0,0.,12.0,0.,12.0
1979-07-22 10:11:53.130 ,4,0,0.,12.0,0.,12.0,0.,12.0,0.,12.0
1979-07-22 10:12:05.130 ,5,0,0.,12.0,0.,12.0,0.,12.0,0.,12.0
1979-07-22 10:12:17.130 ,5,0,0.,12.0,0.,12.0,0.,12.0,0.,12.0
1979-07-22 10:12:29.130 ,5,0,0.,12.0,0.,12.0,0.,12.0,0.,12.0
1979-07-22 10:12:41.130 ,5,0,0.,12.0,0.,12.0,0.,12.0,0.,12.0
1979-07-22 10:12:53.130 ,6,0,0.,12.0,0.,12.0,0.,12.0,0.,12.0
1979-07-22 10:13:05.130 ,6,0,0.,12.0,0.,12.0,0.,12.0,0.,12.0
1979-07-22 10:13:17.130 ,6,0,0.,12.0,0.,12.0,0.,12.0,0.,12.0
1979-07-22 10:13:29.130 ,6,0,0.,12.0,0.,12.0,0.,12.0,0.,12.0
1979-07-22 10:13:41.130 ,7,0,0.,12.0,0.,12.0,0.,12.0,0.,12.0
1979-07-22 10:13:53.130 ,7,0,0.,12.0,0.,12.0,0.,12.0,0.,12.0
1979-07-22 10:14:05.130 ,7,0,0.,12.0,0.,12.0,0.,12.0,0.,12.0
1979-07-22 10:14:17.130 ,7,0,0.,12.0,0.,12.0,0.,12.0,0.,12.0
1979-07-22 10:14:29.130 ,7,0,0.,12.0,0.,12.0,0.,12.0,0.,12.0
1979-07-22 10:14:41.130 ,7,0,0.,12.0,0.,12.0,0.,12.0,0.,12.0
1979-07-22 10:14:53.130 ,7,0,0.,12.0,0.,12.0,0.,12.0,0.,12.0
1979-07-22 10:15:05.130 ,7,0,0.,12.0,0.,12.0,0.,12.0,0.,12.0
1979-07-22 10:15:17.130 ,6,0,0.,12.0,0.,12.0,0.,12.0,0.,12.0
1979-07-22 10:15:29.130 ,6,0,0.,12.0,0.,12.0,0.,12.0,0.,12.0
1979-07-22 10:15:41.130 ,6,0,0.,12.0,0.,12.0,0.,12.0,0.,12.0
1979-07-22 10:15:53.130 ,6,0,0.,12.0,0.,12.0,0.,12.0,0.,12.0
1979-07-22 10:16:05.130 ,5,0,0.,12.0,0.,12.0,0.,12.0,0.,12.0
1979-07-22 10:16:17.130 ,5,0,0.,12.0,0.,12.0,0.,12.0,0.,12.0
1979-07-22 10:16:29.130 ,5,0,0.,12.0,0.,12.0,0.,12.0,0.,12.0
1979-07-22 10:16:41.130 ,5,0,0.,12.0,0.,12.0,0.,12.0,0.,12.0
1979-07-22 10:16:53.130 ,4,0,0.,12.0,0.,12.0,0.,12.0,0.,12.0
1979-07-22 10:17:05.130 ,4,0,0.,12.0,0.,12.0,0.,12.0,0.,12.0
1979-07-22 10:17:17.130 ,4,0,0.,12.0,0.,12.0,0.,12.0,0.,12.0
1979-07-22 10:17:29.130 ,4,0,0.,12.0,0.,12.0,0.,12.0,0.,12.0